Flag for Canada Weather past 2 weeks in Guelph, Ontario, Canada

Now
64 °F

Sunny.


Feels Like: 64 °F
Forecast: 57 / 82 °F
Wind: 7 mph from South

Location: Waterloo Well

Current Time: Aug 30, 2014 at 8:44:16 AM

Latest Report: Aug 30, 2014 at 8:00 AM


Visibility: 9 mi

Pressure: 30.04 "Hg

Humidity: 83%

Dew point: 59 °F

Location of GuelphLocation

Historic Weather in Guelph — Graph

°F

Guelph temperature yesterday

Maximum temperature yesterday: 73 °F (at 2:00 PM)
Minimum temperature yesterday: 46 °F (at 2:56 AM)
Average temperature yesterday: 59 °F

Past Weeks' High & Low Weather Summary

 TemperatureHumidityPressure
High84 °F (Aug 26, 2:00 PM)100% (Aug 17, 5:00 AM)30.20 "Hg (Aug 17, 5:00 AM)
Low45 °F (Aug 19, 5:03 AM)45% (Aug 25, 3:00 PM)29.82 "Hg (Aug 16, 5:50 PM)
Average63 °F82%30.01 "Hg
* Reported Aug 15 7:00 AM — Aug 30 7:00 AM, Guelph, Weather by CustomWeather, © 2014

Note: Actual official high and low records may vary slightly from our data, if they occured in-between our weather recording intervals... More about our weather records

Advertising

Guelph weather history for previous 24 hours

 ConditionsComfort  
Time TempWeatherWind HumidityBarometerVisibility
7:00 AM
Aug 30
59 °FPassing clouds.5 mph94%30.04 "Hg9 mi
6:00 AM59 °FClear.2 mph94%30.04 "Hg9 mi
5:00 AM61 °FPassing clouds.5 mph88%30.03 "Hg9 mi
4:00 AM59 °FPassing clouds.3 mph94%30.05 "Hg9 mi
3:00 AM59 °FPassing clouds.No wind94%30.07 "Hg9 mi
2:00 AM59 °FOvercast.No wind94%30.08 "Hg9 mi
1:00 AM57 °FPassing clouds.No wind94%30.10 "Hg9 mi
12:00 AM59 °FPassing clouds.5 mph94%30.10 "Hg9 mi
11:00 PM
Aug 29
59 °FPassing clouds.5 mph94%30.11 "Hg9 mi
10:00 PM61 °FPassing clouds.6 mph83%30.10 "Hg9 mi
9:00 PM64 °FMostly cloudy.10 mph73%30.11 "Hg9 mi
8:00 PM68 °FMostly cloudy.9 mph60%30.10 "Hg9 mi
7:00 PM70 °FPassing clouds.10 mph57%30.11 "Hg9 mi
6:00 PM73 °FPassing clouds.12 mph53%30.11 "Hg9 mi
5:00 PM73 °FPartly sunny.8 mph53%30.11 "Hg9 mi
3:00 PM73 °FPassing clouds.8 mph53%30.14 "Hg9 mi
2:00 PM73 °FSunny.7 mph53%30.15 "Hg9 mi
1:00 PM70 °FSunny.8 mph57%30.17 "Hg9 mi
12:00 PM68 °FSunny.7 mph60%30.18 "Hg9 mi
11:00 AM66 °FSunny.10 mph68%30.19 "Hg9 mi
10:00 AM63 °FSunny.9 mph77%30.20 "Hg9 mi
9:00 AM55 °FSunny.3 mph88%30.20 "Hg9 mi
8:00 AM52 °FPartly sunny.No wind94%30.20 "Hg9 mi
Weather by CustomWeather, © 2014

See weather overviewHow to use our weather pages